Watford City, ND

7:26 PM CST on November 17, 2017 (GMT -0600)
Watford City

Weather History for KS25 - September, 2013

Change the Weather History Date:

Sunday, September 8, 2013

  Actual Average (KISN) Record (KISN)
Temperature  
Mean Temperature 67 °F -  
Max Temperature 75 °F 75 °F 97 °F (1994)
Min Temperature 59 °F 46 °F 31 °F (1929)
Cooling Degree Days 2    
Growing Degree Days 17 (Base 50)    
Moisture  
Dew Point 61 °F    
Average Humidity 86    
Maximum Humidity 100    
Minimum Humidity 65    
Precipitation  
Precipitation 0.00 in - - ()
Sea Level Pressure  
Sea Level Pressure 29.92 in    
Wind  
Wind Speed 6 mph (NE)    
Max Wind Speed 10 mph    
Max Gust Speed -    
Visibility 10 miles    
Events Rain    
Averages and records for this station are not official NWS values.
T = Trace of Precipitation, MM = Missing Value Source: NWS Daily Summary

Daily Weather History Graph

Daily Weather History Graph

Search for Another Location

Airport or City:

Trip Planner

Search our weather history database for the weather conditions in past years. The results will help you decide how hot, cold, wet, or windy it might be!

Date:

Astronomy

Sep. 08, 2013 Rise Set
Actual Time 7:21 AM CDT 8:19 PM CDT
Civil Twilight 6:49 AM CDT 8:50 PM CDT
Nautical Twilight 6:11 AM CDT 9:28 PM CDT
Astronomical Twilight 5:31 AM CDT 10:07 PM CDT
Moon 10:59 AM CDT (9/8) 9:35 PM CDT (9/8)
Length of Visible Light 14h 00m
Length of Day
12h 57m
Waxing Crescent, 11% of the Moon is Illuminated
Sep 8
Waxing Crescent
Sep 12
First Quarter
Sep 19
Full
Sep 26
Last Quarter
Oct 4
New

Hourly Weather History & Observations

Time (CDT) Temp. Dew Point Humidity Pressure Visibility Wind Dir Wind Speed Gust Speed Precip Events Conditions
12:15 AM 62.6 °F 57.2 °F 82% 30.03 in 10.0 mi East 8.1 mph - N/A   Clear
12:35 AM 60.8 °F 57.2 °F 88% 30.03 in 10.0 mi East 6.9 mph - N/A   Clear
12:55 AM 60.8 °F 57.2 °F 88% 30.02 in 10.0 mi East 6.9 mph - N/A   Clear
1:15 AM 60.8 °F 57.2 °F 88% 30.02 in 10.0 mi ENE 5.8 mph - N/A   Clear
1:35 AM 60.8 °F 57.2 °F 88% 30.03 in 10.0 mi East 8.1 mph - N/A   Partly Cloudy
1:55 AM 60.8 °F 57.2 °F 88% 30.02 in 10.0 mi East 9.2 mph - N/A   Scattered Clouds
2:15 AM 60.8 °F 57.2 °F 88% 30.01 in 10.0 mi East 9.2 mph - N/A   Clear
2:35 AM 60.8 °F 57.2 °F 88% 30.00 in 10.0 mi ESE 9.2 mph - N/A   Scattered Clouds
2:55 AM 62.6 °F 57.2 °F 82% 30.00 in 10.0 mi ESE 10.4 mph - N/A   Mostly Cloudy
3:15 AM 62.6 °F 57.2 °F 82% 29.99 in 10.0 mi ESE 10.4 mph - N/A   Mostly Cloudy
3:35 AM 60.8 °F 57.2 °F 88% 30.01 in 10.0 mi SSE 5.8 mph - N/A   Scattered Clouds
3:55 AM 60.8 °F 57.2 °F 88% 30.00 in 10.0 mi Calm Calm - N/A   Mostly Cloudy
4:15 AM 59.0 °F 57.2 °F 94% 30.00 in 10.0 mi Calm Calm - N/A   Partly Cloudy
4:35 AM 59.0 °F 57.2 °F 94% 30.01 in 10.0 mi SE 3.5 mph - N/A   Clear
4:55 AM 59.0 °F 57.2 °F 94% 30.02 in 10.0 mi Calm Calm - N/A   Partly Cloudy
5:15 AM 59.0 °F 57.2 °F 94% 30.01 in 10.0 mi Calm Calm - N/A   Scattered Clouds
5:35 AM 59.0 °F 57.2 °F 94% 30.00 in 10.0 mi Calm Calm - N/A   Scattered Clouds
5:55 AM 59.0 °F 57.2 °F 94% 30.00 in 10.0 mi SSE 3.5 mph - N/A   Mostly Cloudy
6:15 AM 59.0 °F 59.0 °F 100% 29.99 in 10.0 mi ESE 6.9 mph - N/A   Scattered Clouds
6:35 AM 59.0 °F 59.0 °F 100% 29.97 in 10.0 mi East 4.6 mph - N/A   Clear
6:55 AM 59.0 °F 59.0 °F 100% 29.96 in 10.0 mi Calm Calm - N/A   Clear
7:15 AM 59.0 °F 59.0 °F 100% 29.95 in 10.0 mi ENE 3.5 mph - N/A   Clear
7:35 AM 59.0 °F 59.0 °F 100% 29.96 in 10.0 mi Calm Calm - N/A   Clear
7:55 AM 59.0 °F 59.0 °F 100% 29.95 in 10.0 mi ESE 3.5 mph - N/A   Mostly Cloudy
8:15 AM 60.8 °F 59.0 °F 94% 29.95 in 10.0 mi ESE 4.6 mph - N/A   Partly Cloudy
8:35 AM 60.8 °F 60.8 °F 100% 29.95 in 10.0 mi ESE 5.8 mph - N/A   Mostly Cloudy
8:55 AM 60.8 °F 60.8 °F 100% 29.93 in 10.0 mi ESE 8.1 mph - N/A   Mostly Cloudy
9:15 AM 60.8 °F 60.8 °F 100% 29.94 in 10.0 mi ESE 5.8 mph - N/A   Overcast
9:35 AM 62.6 °F 60.8 °F 94% 29.96 in 10.0 mi SSE 5.8 mph - N/A   Overcast
9:55 AM 62.6 °F 60.8 °F 94% 29.95 in 10.0 mi SE 5.8 mph - N/A   Mostly Cloudy
10:15 AM 62.6 °F 60.8 °F 94% 29.96 in 10.0 mi SE 5.8 mph - N/A   Mostly Cloudy
10:35 AM 64.4 °F 60.8 °F 88% 29.96 in 10.0 mi SSE 5.8 mph - N/A   Overcast
10:55 AM 64.4 °F 62.6 °F 94% 29.96 in 10.0 mi SSE 4.6 mph - N/A   Overcast
11:15 AM 66.2 °F 62.6 °F 88% 29.95 in 10.0 mi SSW 3.5 mph - N/A   Overcast
11:35 AM 68.0 °F 62.6 °F 83% 29.95 in 10.0 mi WSW 6.9 mph - N/A   Overcast
11:55 AM 68.0 °F 62.6 °F 83% 29.94 in 10.0 mi WSW 8.1 mph - N/A   Overcast
12:35 PM 71.6 °F 62.6 °F 73% 29.93 in 10.0 mi West 10.4 mph - N/A   Mostly Cloudy
12:55 PM 73.4 °F 62.6 °F 69% 29.93 in 10.0 mi West 10.4 mph - N/A   Mostly Cloudy
1:15 PM 71.6 °F 62.6 °F 73% 29.92 in 10.0 mi West 8.1 mph - N/A   Overcast
1:35 PM 73.4 °F 62.6 °F 69% 29.92 in 10.0 mi West 8.1 mph - N/A   Mostly Cloudy
1:55 PM 75.2 °F 62.6 °F 65% 29.92 in 10.0 mi WNW 5.8 mph - N/A   Mostly Cloudy
2:15 PM 73.4 °F 62.6 °F 69% 29.91 in 10.0 mi West 6.9 mph - N/A   Mostly Cloudy
2:35 PM 75.2 °F 62.6 °F 65% 29.91 in 10.0 mi West 6.9 mph - N/A   Mostly Cloudy
2:55 PM 73.4 °F 62.6 °F 69% 29.90 in 10.0 mi West 9.2 mph - N/A   Scattered Clouds
3:15 PM 73.4 °F 62.6 °F 69% 29.89 in 10.0 mi WNW 6.9 mph - N/A   Partly Cloudy
3:35 PM 75.2 °F 62.6 °F 65% 29.89 in 10.0 mi NW 9.2 mph - N/A   Scattered Clouds
3:55 PM 73.4 °F 62.6 °F 69% 29.89 in 10.0 mi NW 10.4 mph - N/A   Partly Cloudy
4:15 PM 71.6 °F 62.6 °F 73% 29.88 in 10.0 mi WNW 9.2 mph - N/A   Clear
4:35 PM 71.6 °F 62.6 °F 73% 29.87 in 10.0 mi NW 6.9 mph - N/A   Clear
4:55 PM 71.6 °F 62.6 °F 73% 29.86 in 10.0 mi NNW 5.8 mph - N/A   Clear
5:15 PM 71.6 °F 62.6 °F 73% 29.86 in 10.0 mi NNW 4.6 mph - N/A   Clear
5:35 PM 69.8 °F 62.6 °F 78% 29.85 in 10.0 mi NNW 6.9 mph - N/A   Clear
5:55 PM 69.8 °F 62.6 °F 78% 29.86 in 10.0 mi NNW 6.9 mph - N/A   Clear
6:15 PM 69.8 °F 62.6 °F 78% 29.85 in 10.0 mi NNW 4.6 mph - N/A   Clear
6:35 PM 69.8 °F 62.6 °F 78% 29.84 in 10.0 mi NNW 6.9 mph - N/A   Clear
6:55 PM 71.6 °F 62.6 °F 73% 29.84 in 10.0 mi NNW 6.9 mph - N/A   Clear
7:15 PM 68.0 °F 62.6 °F 83% 29.83 in 10.0 mi North 4.6 mph - N/A   Clear
7:35 PM 68.0 °F 62.6 °F 83% 29.83 in 10.0 mi NNE 4.6 mph - N/A   Partly Cloudy
7:55 PM 68.0 °F 62.6 °F 83% 29.83 in 10.0 mi NNE 4.6 mph - N/A   Clear
8:15 PM 66.2 °F 62.6 °F 88% 29.83 in 10.0 mi NNE 3.5 mph - N/A   Clear
8:35 PM 66.2 °F 62.6 °F 88% 29.83 in 10.0 mi North 4.6 mph - N/A   Scattered Clouds
8:55 PM 66.2 °F 62.6 °F 88% 29.83 in 10.0 mi North 3.5 mph - N/A   Overcast
9:15 PM 66.2 °F 62.6 °F 88% 29.83 in 10.0 mi Calm Calm - N/A   Overcast
9:35 PM 66.2 °F 62.6 °F 88% 29.82 in 10.0 mi North 4.6 mph - N/A   Overcast
9:55 PM 66.2 °F 62.6 °F 88% 29.82 in 10.0 mi North 4.6 mph - N/A   Mostly Cloudy
10:15 PM 66.2 °F 62.6 °F 88% 29.81 in 10.0 mi NNW 4.6 mph - N/A   Mostly Cloudy
10:35 PM 66.2 °F 64.4 °F 94% 29.81 in 10.0 mi Calm Calm - N/A Rain Light Rain
10:55 PM 66.2 °F 64.4 °F 94% 29.80 in 10.0 mi Calm Calm - N/A   Overcast
11:15 PM 66.2 °F 62.6 °F 88% 29.78 in 10.0 mi North 5.8 mph - N/A   Mostly Cloudy
11:35 PM 64.4 °F 62.6 °F 94% 29.78 in 10.0 mi NNE 3.5 mph - N/A   Mostly Cloudy
11:55 PM 64.4 °F 62.6 °F 94% 29.79 in 10.0 mi East 4.6 mph - N/A   Overcast